Flag for Canada Weather past 2 weeks in Kugluktuk, Nunavut Territory, Canada

Now
57 °F

Passing clouds.


Feels Like: 55 °F
Forecast: 40 / 56 °F
Wind: 9 mph from East

Location: Coppermine

Current Time: Aug 22, 2014 at 3:41:49 PM

Latest Report: Aug 22, 2014 at 3:00 PM


Visibility: 15 mi

Pressure: 30.29 "Hg

Humidity: 48%

Dew point: 37 °F

Location of KugluktukLocation

Historic Weather in Kugluktuk — Graph

°F

Kugluktuk temperature yesterday

Maximum temperature yesterday: 54 °F (at 3:00 PM)
Minimum temperature yesterday: 32 °F (at 6:00 AM)
Average temperature yesterday: 44 °F

Past Weeks' High & Low Weather Summary

 TemperatureHumidityPressure
High57 °F (Aug 10, 2:00 PM)100% (Aug 13, 3:00 AM)30.36 "Hg (Aug 13, 3:00 AM)
Low32 °F (Aug 19, 5:00 AM)38% (Aug 21, 2:00 PM)29.68 "Hg (Aug 16, 9:00 PM)
Average46 °F75%30.00 "Hg
* Reported Aug 7 2:00 PM — Aug 22 2:00 PM, Kugluktuk, Weather by CustomWeather, © 2014

Note: Actual official high and low records may vary slightly from our data, if they occured in-between our weather recording intervals... More about our weather records

Advertising

Kugluktuk weather history for previous 24 hours

 ConditionsComfort  
Time TempWeatherWind HumidityBarometerVisibility
2:00 PM
Aug 22
55 °FScattered clouds.8 mph47%30.30 "Hg15 mi
1:00 PM55 °FScattered clouds.5 mph55%30.31 "Hg15 mi
12:00 PM55 °FScattered clouds.6 mph47%30.32 "Hg15 mi
11:00 AM54 °FBroken clouds.6 mph51%30.32 "Hg15 mi
10:00 AM52 °FPartly sunny.9 mph54%30.33 "Hg15 mi
9:00 AM48 °FPartly sunny.8 mph58%30.34 "Hg15 mi
8:00 AM43 °FPassing clouds.8 mph71%30.35 "Hg15 mi
7:00 AM37 °FPassing clouds.8 mph87%30.35 "Hg15 mi
6:00 AM36 °FPassing clouds.10 mph87%30.36 "Hg15 mi
5:00 AM36 °FPassing clouds.8 mph81%30.36 "Hg15 mi
4:00 AM37 °FPassing clouds.10 mph75%30.35 "Hg15 mi
3:00 AM41 °FPassing clouds.10 mph66%30.34 "Hg15 mi
2:00 AM41 °FPassing clouds.10 mph66%30.34 "Hg15 mi
1:00 AM41 °FPassing clouds.7 mph66%30.34 "Hg15 mi
12:00 AM39 °FPassing clouds.5 mph70%30.34 "Hg15 mi
11:00 PM
Aug 21
43 °FPassing clouds.5 mph57%30.34 "Hg15 mi
10:00 PM45 °FPassing clouds.6 mph57%30.34 "Hg15 mi
9:00 PM48 °FPassing clouds.7 mph50%30.34 "Hg15 mi
8:00 PM50 °FPassing clouds.6 mph54%30.34 "Hg15 mi
7:00 PM52 °FPassing clouds.7 mph41%30.34 "Hg15 mi
6:00 PM52 °FPassing clouds.5 mph41%30.35 "Hg15 mi
5:00 PM54 °FPassing clouds.3 mph41%30.35 "Hg15 mi
4:00 PM54 °FPassing clouds.3 mph41%30.36 "Hg15 mi
3:00 PM54 °FPassing clouds.No wind38%30.36 "Hg15 mi
Weather by CustomWeather, © 2014

See weather overviewHow to use our weather pages